www.pogodaiklimat.ru

Погода и климат >> Архив погоды >> Россия >> Краснодарский край >> Сочи аэропорт (Адлер)


ПОГОДА в Сочи аэропорт (Адлере)

  • Прогноз погоды в Сочи аэропорт (Адлере)
  • Монитор погоды в Сочи аэропорт (Адлере)

АРХИВ ПОГОДЫ в Сочи аэропорт (Адлере)

Время (UTC), дата Ветер
(напр.,м/с)
 
Видим.   Явления Облачность Т
(С)
Тd
(С)
f
(%)
Тe
(С)
Тes
(С)
Комфортность P
(гПа)
Po
(гПа)
Тmin
(С)
Tmax
(С)
R
(мм)
R24
(мм)
S
(см)
09 12.03 ЮВ 7-12
{12}
20 км 10/0
[Ac und Cs]
+19.2 +2.3 32 +19 +20 1009.4 1007.6
12 12.03 ЮВ 5
{12}
20 км 10/0
[Ac und]
+17.1 +1.7 35 +16 +17 1010.1 1008.3
15 12.03 ЮВ 3 20 км 10/0
[Ac und]
+17.7 +2.7 37 +18 +18 1010.3 1008.5 +20.7
18 12.03 С 1 4000 м 10/4 1500 м
[Cb cap Ac und]
+14.3 +6.7 60 +15 +15 1011.9 1010.1
21 12.03 СВ 4 4000 м слаб. ливневой дождь 10/10 1500 м
[Cb cap]
+13.4 +8.9 74 +12 +12 1012.6 1010.8
00 13.03 СВ 4 4000 м слаб. ливневой дождь 10/10 1500 м
[Cb cap]
+11.1 +9.9 92 +9 +9 1012.2 1010.4
03 13.03 СВ 4 4000 м слаб. ливневой дождь 10/8 1500 м
[Cb cap Ac und]
+11.1 +9.7 91 +9 +9 1010.5 1008.7 +10.5 3
06 13.03 СВ 3 10 км слаб. ливневой дождь 10/10 1200 м
[Cb cap]
+11.4 +12.3 100 +9 +9 1011.4 1009.6
09 13.03 В 4 10 км слаб. ливневой дождь 10/10 1500 м
[Cb cap]
+13.6 +10.2 80 +12 +12 1010.8 1003.0
12 13.03 СВ 1 10 км слаб. ливневой дождь 10/10 1200 м
[Cb cap]
+12.3 +10.2 87 +12 +12 1011.1 1009.3
15 13.03 ЮВ 1 10 км слаб. ливневой дождь 10/10 360 м
[Cb cap]
+10.8 +9.7 93 +10 +10 1012.5 1010.7 +14.1 5
18 13.03 З 3 4000 м слаб. ливневой дождь 10/10 120 м
[Cb cap]
+8.8 +8.2 96 +6 +6 1013.7 1011.9
21 13.03 Ю 1 4000 м слаб. ливневой дождь 10/10 180 м
[Cb cap]
+8.5 +7.8 95 +8 +8 1014.2 1012.4
00 14.03 В 1 4000 м слаб. ливневой дождь 10/10 300 м
[Cb cap]
+8.1 +7.4 95 +7 +7 1014.6 1012.8
03 14.03 В 1 4000 м слаб. ливневой дождь 10/10 210 м
[Cb cap]
+8.4 +7.8 96 +7 +7 1014.9 1013.1 +7.8 12
06 14.03 В 1 10 км слаб. ливневой дождь 10/10 120 м
[Cb cap]
+8.5 +8.2 98 +8 +8 1018.9 1013.0
09 14.03 ЮЗ 2 10 км {ливн. осадки} 9/9 700 м
[Sc diur, vesp Ac trans]
+9.9 +8.9 93 +8 +9 1013.7 1011.9
12 14.03 З 3 10 км {ливн. осадки} 10/3 600 м
[Cu Sc Ac trans Ci fib]
+11.0 +9.2 89 +9 +11 1011.5 1009.7
15 14.03 З 2 10 км 10/8 210 м
[Sc Ac trans]
+9.2 +8.4 95 +7 +7 1011.1 1009.3 +11.6 3
18 14.03 З 1 4000 м 6/5 630 м
[Sc Ac trans]
+8.6 +8.2 97 +8 +8 1010.9 1009.1
21 14.03 Ю 1 4000 м 10/10 240 м
[St]
+8.9 +8.2 95 +8 +8 1011.4 1009.6
00 15.03 ЮЗ 1 4000 м {ливн. осадки} 10/5 210 м
[Sc Ac trans]
+8.5 +8.2 98 +8 +8 1011.2 1009.4
03 15.03 штиль 0 4000 м 10/8 630 м
[Sc Ac und]
+8.6 +8.2 97 +8 +8 1009.3 1007.5 +7.8 0.0
06 15.03 штиль 0 4000 м дымка 10/10 150 м
[St]
+8.9 +8.5 97 +8 +8 1007.6 1006.8 +7.6
09 15.03 З 3 20 км 10/0
[]
+11.3 +8.9 85 +10 +15 1008.2 1006.4
12 15.03 СЗ 3 10 км слаб. ливневой дождь 10/10 1350 м
[Cb cap]
+9.2 +8.8 97 +7 +7 1008.2 1006.4
15 15.03 СВ 6
{11}
20 км в посл. час ливневой дождь 10/3 600 м
[Cb cap Ac trans Ci fib]
+11.1 +9.3 89 +8 +8 1006.4 1004.6 +12.0 4
18 15.03 СЗ 4 4000 м слаб. ливневой дождь 10/10 1500 м
[Cb cap]
+9.3 +8.9 97 +6 +6 1009.0 1007.2
21 15.03 СЗ 2 4000 м слаб. ливневой дождь 10/10 120 м
[Cb cap]
+9.2 +9.0 99 +7 +7 1009.1 1007.3
00 16.03 З 4 4000 м {ливн. осадки} 10/6 150 м
[St Ac und]
+9.0 +8.8 99 +6 +6 1008.0 1006.2
03 16.03 штиль 0 4000 м слаб. ливневой дождь 10/9 700 м
[Cb cap Ac und]
+8.6 +8.4 99 +8 +8 1008.2 1006.4 +8.6 5
06 16.03 З 4 4000 м слаб. ливневой дождь 10/10 180 м
[Cb cap]
+8.9 +8.2 95 +6 +6 1008.3 1006.5 +8.4
09 16.03 З 4 4000 м ливневой дождь 10/10 120 м
[Cb cap]
+8.1 +7.8 98 +5 +5 1009.3 1007.5
12 16.03 З 2 4000 м ливневой дождь 10/10 150 м
[Cb cap]
+8.1 +7.8 98 +6 +6 1010.3 1008.9
15 16.03 З 3 4000 м ливневой дождь 10/10 180 м
[Cb cap]
+7.6 +7.4 99 +5 +5 1011.8 1010.0 +9.6 22
18 16.03 штиль 0 4000 м ливневой дождь 10/10 180 м
[Cb cap]
+7.2 +7.0 99 +6 +6 1013.3 1011.4
21 16.03 В 2 4000 м слаб. ливневой дождь 10/10 700 м
[Cb cap]
+6.7 +5.3 91 +4 +4 1012.9 1011.0
00 17.03 СВ 2 4000 м слаб. ливневой дождь 10/10 930 м
[Cb cap]
+6.7 +6.3 97 +4 +4 1011.0 1009.1
03 17.03 ЮВ 2 4000 м слаб. ливневой дождь 10/10 450 м
[Cb cap]
+7.8 +6.1 89 +6 +6 1010.3 1008.5 +6.2 9
06 17.03 В 1 4000 м ливневой дождь 10/10 800 м
[Cb cap]
+6.3 +5.4 94 +5 +5 1012.3 1010.4 +6.1
09 17.03 СВ 4 10 км слаб. ливневой дождь 10/10 900 м
[Cb cap]
+5.8 +4.2 89 +2 +2 1013.9 1012.0
12 17.03 ЮВ 1 10 км слаб. ливневой дождь 10/10 360 м
[Cb cap]
+7.1 +5.3 88 +6 +6 1015.9 1014.0
15 17.03 В 2 10 км {ливн. осадки} 9/4 900 м
[Cb cap Ac trans]
+7.3 +5.5 88 +5 +5 1017.9 1016.0 +8.2 17
18 17.03 СВ 3 4000 м {ливн. осадки} 3/3 600 м
[Cb cap Ac trans]
+5.0 +4.1 94 +1 +1 1020.5 1018.6
21 17.03 СВ 3 4000 м слаб. ливневой дождь 10/10 480 м
[Cb cap]
+5.9 +5.2 95 +2 +2 1020.7 1018.8
00 18.03 СВ 2 4000 м в посл. час ливневой дождь 10/8 600 м
[Cb cap Ac und]
+5.0 +3.8 92 +2 +2 1021.5 1019.6
03 18.03 СВ 3 4000 м 9/9 1200 м
[Cb cap]
+5.0 +3.8 92 +1 +1 1021.7 1019.8 +3.7 10
06 18.03 В 2 20 км 3/3 1000 м
[Sc]
+7.7 +4.3 79 +6 +9 1022.9 1021.1
09 18.03 ЮЗ 3 20 км 3/3 1000 м
[Cu med, cong]
+9.5 +0.4 53 +8 +14 1023.3 1021.5
12 18.03 ЮЗ 4 10 км 3/3 600 м
[Cu med, cong]
+10.3 +3.8 64 +8 +11 1023.4 1021.6
15 18.03 З 5 10 км 6/6 1200 м
[Cb cap]
+8.9 +2.5 64 +6 +6 1024.2 1022.4 +1.1
18 18.03 штиль 0 4000 м 8/8 540 м
[St]
+6.1 +5.0 93 +5 +5 1023.5 1021.6
21 18.03 СВ 4 4000 м 10/10 700 м
[Sc]
+6.5 +5.1 91 +3 +3 1024.1 1022.2
00 19.03 В 3 4000 м 5/5 700 м
[Sc]
+5.3 +4.4 94 +2 +2 1024.5 1022.6
03 19.03 В 4 4000 м 3/3 600 м
[Sc]
+4.2 +2.5 89 -0 -0 1024.3 1022.4 +4.0
06 19.03 В 3 20 км ясно +8.8 +3.2 68 +7 +11 1024.5 1022.7 +3.4

 

Местоположение метеостанции Сочи аэропорт (Адлер) (Краснодарский край, Россия): широта 43.43 долгота 39.90 высота над уровнем моря 15 м.

В архиве по умолчанию представлена погода в Сочи аэропорт (Адлере) за последнюю неделю. Архивные данные за месяц целиком и за предыдущие месяцы, начиная с января 2011 года, Вы можете получить, выбрав интересующий диапазон дат из раскрывающегося списка и нажав кнопку "Ввод!".


*Определитесь, кто Вы:
робот инопланетянин человек

Внимание! Время в таблицах - всемирное. Для получения местного времени необходимо прибавить поправку, которая равна 3 ч.

Смотрите также архив погоды в соседних городах и на ближайших метеорологических станциях:

Погода в Имеретинке (Краснодарский край, Россия) (5 км)
Погода в Сочи (Краснодарский край, Россия) (20 км)
Погода в Кепше (Краснодарский край, Россия) (24 км)
Погода в Красной Поляне (Краснодарский край, Россия) (37 км)
Погода в Горная Карусель 1500 (Краснодарский край, Россия) (40 км)
Погода в Горная Карусель 1000 (Краснодарский край, Россия) (40 км)
Погода на Кордоне Лаура (Краснодарский край, Россия) (44 км)
Погода в Солох Ауле (Краснодарский край, Россия) (47 км)
Погода в Кичмае (Краснодарский край, Россия) (54 км)
Погода в Гузерипле (Адыгея, Россия) (66 км)

Пояснения к столбцам:

Ветер - указаны скорость ветра в м/с - средняя за 10 мин, порывы в срок и между сроками (в фигурных скобках) и направление, откуда дует ветер: С - северный, СВ - северо-восточный, В - восточный, ЮВ - юго-восточный, Ю - южный, ЮЗ - юго-западный, З - западный, СЗ - северо-западный.
Видимость - горизонтальная дальность видимости в метрах или километрах. При видимости от 1 до 10 км при отсутствии осадков обычно наблюдается дымка, при ухудшении видимости до 1 км и менее - туман. В сухую погоду видимость может ухудшаться дымом, пылью или мглою.
Явления - указаны атмосферные явления, наблюдавшиеся в срок или в последний час перед сроком; фигурными скобками обозначены явления, наблюдавшиеся между сроками (за 1-3 часа до срока); квадратными скобками обозначены град или гололедные отложения с указанием их диаметра в мм.
Облачность - указаны через наклонную черту общая и нижняя облачность в баллах и высота нижней границы облаков в метрах; квадратными скобками обозначены формы облаков: Ci - перистые, Cs - перисто-слоистые, Cc - перисто-кучевые, Ac - высококучевые, As - высокослоистые, Sc - слоисто-кучевые, Ns - слоисто-дождевые, Cu - кучевые, Cb - кучево-дождевые. Подробнее классификацию облаков см. в Атласе облаков (PDF).
T - Температура воздуха - температура, измеренная на высоте 2 м над землей.
Td - Температура точки росы - температура, при понижении до которой содержащийся в воздухе водяной пар достигнет насыщения.
f - Относительная влажность воздуха - влажноcть воздуха, измеренная на высоте 2 м над землей.
Te - Эффективная температура - температура, которую ощущает одетый по сезону человек в тени. Характеристика душности погоды. При расчете учитывается влияние влажности воздуха и скорости ветра на теплоощущения человека.
Tes - Эффективная температура на солнце - температура, которую ощущает человек, с поправкой на солнечный нагрев. Характеристика знойности погоды. Зависит от высоты солнца над горизонтом, облачности и скорости ветра. Ночью, в пасмурную погоду, а также при ветре 12 м/с и более поправка равна нулю.
P - Атмосферное давление - приведенное к уровню моря атмосферное давление.
Po - Атмосферное давление - измеренное на уровне метеостанции атмосферное давление.
Tmin - Минимальная температура - минимум температуры воздуха на высоте 2 м над землей.
Tmax - Максимальная температура - максимум температуры воздуха на высоте 2 м над землей.
R - Количество осадков - Количество выпавших осадков за период времени, мм. При наведении курсора мыши на число - период времени, за который выпало указанное количество осадков.
R24 - Количество осадков - Количество выпавших осадков за 24 часа, мм.
S - Снежный покров - Высота снежного покрова, см. При наведении курсора мыши на число - состояние снежного покрова и степень покрытия местности в баллах.